Погода в Гомеле

Погода в Гомеле : погода сейчас, прогноз погоды и архив. Всё, что Вы хотите узнать о погоде в Гомеле!

Хотите узнать прогноз погоды в Гомеле? Тогда Вам сюда: Погода в Гомеле

Поиск расширенной информации на нашем сайте:

Другие новости

Новости СМИ2

Главная страница сайта

Новости сайта

03.07.2017

Напоминаем, что на нашем специализированном сайте Метеоцентр.Азия вы можете получить высокодетализированные автоматические прогнозы погоды по пунктам России, СНГ и мира в авиационном формате (включающие направление и скорость ветра, видимость, явления погоды, количество и форму облачности, нижнюю и верхнюю границу облачности).

Рекомендуем: Мобильные аудио поздравления на телефон с днем рождения http://www.prorebenka.com.

Погода в Гомеле - сегодня

Время (UTC), дата Ветер
(°,м/с) 
Видим.   Явления Облачность Т
(°С)
Тd
(°С)
f(%) Тe
(°С)
Pmin
(гПа)
dP
(гПа)
Po
(мм)
O2
(г/м3)
Тmin Tmax R s Состояние
почвы
12 20.08.17 130 (ЮВ) 4{11}  35000 м    6/1 1000 м верхняя 
[Cu hum|Ci]
+31.2 +8.4 24 +31  1018  -1.2  753  271           
15 20.08.17 150 (ЮВ) 27000 м    4/0 верхняя 
[Ci fib]
+30.5 +7.8 24 +31  1016.6  -1.4  752  271           
18 20.08.17 120 (ЮВ) 28000 м    ясно 
+24.8 +10.7 41 +27  1016.9  752  276    +31.8       
21 20.08.17 110 (В) 30000 м    ясно 
+21.5 +10.6 50 +23  1016.3  -0.8  751  279           
00 21.08.17 тихо ()   29000 м    3/0 средняя 
[Ac trans]
+18.3 +11 62 +21  1015.5  -1  751  281           
03 21.08.17 тихо ()   29000 м    3/0 средняя 
[Ac trans]
+15.3 +10.5 73 +17  1014.6  -1.1  750  284           
06 21.08.17 130 (ЮВ) 30000 м    1/0 средняя 
[Ac trans]
+23.3 +10.7 45 +25  1013.6  -0.5  749  276  +15.1         
09 21.08.17 180 (Ю) 26000 м    3/0 средняя 
[Ac trans]
+30 +9.9 29 +31  1012.3  -0.9  749  270           
12 21.08.17 140 (ЮВ) 4{10}  35000 м    8/5 1000 м кучево-дожд., средняя 
[Cb cap|Ac trans]
+31.5 +5.3 19 +32  1010.2  -2  747  269           
15 21.08.17 320 (СЗ) 4{10}  35000 м  {ливн. осадки}  8/5 1000 м кучево-дожд., средняя, верхняя 
[Cb cap|Ac trans|Ci]
+26 +12.2 42 +30  1010.6  0.1  747  273      0.0     
18 21.08.17 340 (С) 4-10  9000 м  гроза, ливневой дождь  10/10 960 м кучево-дожд. 
[Cb cap]
+21.1 +16.1 73 +32  1011.6  0.7  748  276    +33.1     
21 21.08.17 340 (С) 4{10}  15000 м  {гроза, ливн. осадки}  9/3 1000 м средняя, верхняя 
[Sc|Ac trans|Ci ing]
+18.3 +16 86 +30  1012.7  0.9  748  279      0.0     
00 22.08.17 330 (СЗ) 10 км  в посл. час гроза{ливн. осадки}  9/6 840 м кучево-дожд., средняя, верхняя 
[Cb cap|Ac trans|Ci ing]
+17.2 +16.1 93 +29  1011  -1.7  747  280         
03 22.08.17 290 (З) 7000 м  дымка{ливн. осадки}  10/10 540 м 
[Sc]
+16.7 +15.8 94 +27  1011.6  0.6  748  280         
06 22.08.17 310 (СЗ) 10 км  {ливн. осадки}  10/10 400 м 
[Sc]
+16.4 +15.2 93 +25  1010.9  -0.7  747  281  +15.4       
09 22.08.17 310 (СЗ) 35000 м    9/8 540 м средняя 
[Sc|Ac trans]
+18.5 +14.8 79 +27  1010.1  -0.7  747  279           
12 22.08.17 320 (СЗ) 4{10}  30000 м    9/8 600 м кучево-дожд., средняя 
[Cb cap|Ac und]
+18.8 +14.8 78 +27  1009.2  -0.9  746  278           
15 22.08.17 300 (СЗ) 5{10}  10 км  в посл. час ливневой дождь  10/8 720 м кучево-дожд., средняя 
[Cb cap|Ac As]
+16.6 +15 90 +25  1009.2  -0.1  746  280      0.2     
18 22.08.17 320 (СЗ) 4{10}  8000 м  слаб. ливневой дождь  10/10 210 м кучево-дожд. 
[Cb cap]
+14.6 +13.7 94 +21  1008.4  -0.9  745  282    +20.5     
21 22.08.17 320 (СЗ) 4{11}  9000 м  слаб. ливневой дождь  10/10 180 м кучево-дожд. 
[Cb cap]
+13.7 +12.9 95 +18  1006.5  -1.9  744  283         
00 23.08.17 320 (СЗ) 9000 м  слаб. ливневой дождь  10/10 180 м кучево-дожд. 
[Cb cap]
+13 +12.3 96 +18  1004.6  -1.9  742  283         
03 23.08.17 280 (З) 7000 м  ливневой дождь  10/10 180 м кучево-дожд. 
[Cb cap]
+12.8 +12.1 96 +16  1003.9  -0.7  742  283      14     
06 23.08.17 270 (З) 4{10}  8000 м  слаб. ливневой дождь  10/10 330 м кучево-дожд. 
[Cb cap]
+12.8 +11.3 91 +15  1003.9  742  283  +12.4    22     
09 23.08.17 260 (З) 9000 м  слаб. ливневой дождь  10/10 450 м 
[Sc]
+14.3 +12.2 87 +18  1005.3  1.4  743  282      0.0     
12 23.08.17 290 (З) 5{10}  35000 м  {ливн. осадки}  9/6 900 м средняя 
[Sc|Ac trans]
+17.4 +10.2 63 +19  1006.1  744  280      0.0     
Время (UTC), дата Ветер
(°,м/с) 
Видим.   Явления Облачность Т
(°С)
Тd
(°С)
f(%) Тe
(°С)
Pmin
(гПа)
dP
(гПа)
Po
(мм)
O2
(г/м3)
Тmin Tmax R s Состояние
почвы

Для получения пояснительной информации подведите курсор к названию столбца.

ПОГОДА в Гомеле - архив

Всё, что Вы хотите узнать о погоде в Гомеле - удобно и подробно!

Выберите нужную дату (начиная с 1 января 2015* года) и нажмите кнопку "Найти".
Будут отображены архивные сводки погоды по пункту Гомель, начиная с указанной даты.


Отображать данные в формате CSV (для использования в таблицах Excel)


Внимание! Наш архив погоды предназначен исключительно для личного некоммерческого использования в познавательных целях. Если Вам необходимы официальные справки о состоянии погоды (для производственных, юридических, коммерческих и т.п. целей), обращайтесь в органы Росгидромета.

*Примечание: данная дата относится к архиву по метеостанциям СССР (Россия, СНГ, Балтия).
Архив по метеостанциям Зарубежной Европы и Азии (кроме Китая) хранится 10 дней, по другим регионам земного шара (Китай, Африка, Америка, Австралия, Океания) - 1 день.

Гомель - район местоположения метеостанции


Название, широта, долгота, высота метеостанции:
Гомель (город) 52.4°ш. 30.9°д. 126 м над ур. моря [Беларусь]

Дополнительная информация

В oтличие oт бoльшинства пoгoдных сайтoв мы публикуем пoдрoбную метеoинфoрмацию в детальнoм прoфессиoнальнoм фoрмате.

Характеристики температуры и влажнoсти вoздуха измеряются на высoте 2 м в тени вдали oт зданий и деревьев.
Скoрoсть ветра измеряется на высoте 10 м (на урoвне рoста челoвека скoрoсть ветра ниже в 1.5-2 раза). Если метеoстанция нахoдится в гoрoде или в лесу, тo скoрoсть ветра занижена на 2-4 м/с пo сравнению с oткрытым местoм. Скoрoсть ветра над акватoриями крупных рек и oзёр, а также на вершинах хoлмoв на 2-5 м/с выше, чем в oбычных услoвиях.
Атмoсфернoе давление в разных тoчках местнoсти мoжет значительнo oтличаться oт давления на метеoстанции, в зависимoсти oт услoвий рельефа (при пoдъёме на 10 м давление пoнижается примернo на 1 мм рт.ст.).